Regional Weather Roundup
Issued by NWS

Home | Current Version | Previous Version | Graphics & Text | Print | Product List | Glossary On
Versions: 1 2 3 4 5 6 7 8 9 10 11 12 13 14 15 16 17 18 19 20 21 22 23 24 25 26 27 28 29 30 31 32 33 34 35 36 37 38 39 40 41 42 43 44 45 46 47 48 49 50
000
ASUS44 KMEG 231300
RWRTN
TENNESSEE HOURLY STATE WEATHER ROUNDUP
NATIONAL WEATHER SERVICE MEMPHIS TN
800 AM CDT SAT AUG 23 2014

TNZ002-004-019-021-049-052-054-088>092-231400-
WEST TENNESSEE

CITY           SKY/WX    TMP DP  RH WIND       PRES   REMARKS
MEMPHIS INTL   SUNNY     82  73  74 SW5       30.02S
NWS MEMPHIS      N/A     80 N/A N/A MISG        N/A
JACKSON        SUNNY     77  73  87 S5        30.03R
DYERSBURG      SUNNY     79  68  69 SW5       30.01S
UNION CITY     SUNNY     77  75  94 SW3       29.99S
PARIS          SUNNY     75  73  94 S3        30.02S
LEXINGTON      SUNNY     75  72  88 CALM      30.03R
SAVANNAH       SUNNY     77  77 100 CALM      30.04S
$$

TNZ008-025-027-028-033-062-065-066-231400-
NORTH MIDDLE TENNESSEE

CITY           SKY/WX    TMP DP  RH WIND       PRES   REMARKS
NASHVILLE      PTSUNNY   79  72  79 CALM      30.04R
CLARKSVILLE    CLOUDY    74  72  93 S6        30.01F
COOKEVILLE     SUNNY     75  73  94 CALM      30.05S
CROSSVILLE     RAIN      72  69  90 W5        30.10S FOG
$$

TNZ061-075-076-078-094-096-097-231400-
SOUTH MIDDLE TENNESSEE

CITY           SKY/WX    TMP DP  RH WIND       PRES   REMARKS
FAYETTEVILLE   SUNNY     75  72  88 CALM      30.06S
TULLAHOMA      MOSUNNY   75  72  88 CALM      30.07S
WINCHESTER     SUNNY     75  72  88 CALM      30.06S
COLUMBIA       SUNNY     77  77 100 CALM      30.04S
SHELBYVILLE    SUNNY     75  73  94 CALM      30.06S
$$

TNZ017-018-042-046-047-231400-
NORTHEAST TENNESSEE

CITY           SKY/WX    TMP DP  RH WIND       PRES   REMARKS
TRI CITIES     PTSUNNY   72  68  87 CALM      30.06S
ELIZABETHTON   CLOUDY    68  66  94 CALM      30.07S
$$

TNZ012-013-036-069-073-074-231400-
CENTRAL EAST TENNESSEE

CITY           SKY/WX    TMP DP  RH WIND       PRES   REMARKS
KNOXVILLE      MOSUNNY   77  71  82 SW5       30.03S
OAK RIDGE      MOSUNNY   78  72  81 CALM      30.04S
GATLINBURG     SUNNY     77  70  78 CALM      30.04R
$$

TNZ083-085-099-231400-
SOUTHEAST TENNESSEE

CITY           SKY/WX    TMP DP  RH WIND       PRES   REMARKS
CHATTANOOGA    MOSUNNY   79  72  79 CALM      30.04R
$$

SKY/WX REPORTED AS FAIR MEANS FEW OR NO CLOUDS BELOW
12 THOUSAND FEET.




USA.gov is the U.S. government's official web portal to all federal, state and local government web resources and services.